Weather History for Lambertville, MI

Change the Weather History Date:

Monday, May 13, 2013

  Actual Average (KTOL) Record (KTOL)
Temperature  
Mean Temperature 42 °F 59 °F  
Max Temperature 55 °F 70 °F 89 °F (1991)
Min Temperature 28 °F 48 °F 30 °F (1946)
Degree Days  
Heating Degree Days 24 7  
Month to date heating degree days 115  
Since 1 July heating degree days 6017  
Cooling Degree Days 0 1  
Month to date cooling degree days 10  
Year to date cooling degree days 18  
Moisture  
Dew Point 24 °F    
Average Humidity 53    
Maximum Humidity 93    
Minimum Humidity 23    
Precipitation  
Precipitation 0.00 in 0.11 in 0.94 in (1978)
Month to date precipitation 1.42  
Year to date precipitation 11.21  
Snow  
Snow 0.00 in 0.00 in - ()
Month to date snowfall 0.1  
Since 1 July snowfall 37.6  
Snow Depth -    
Sea Level Pressure  
Sea Level Pressure 30.14 in    
Wind  
Wind Speed 2 mph (WNW)    
Max Wind Speed 12 mph    
Max Gust Speed 30 mph    
Visibility 10 miles    
Events      
T = Trace of Precipitation, MM = Missing Value Source: NWS Daily Summary

Daily Weather History Graph

Daily Weather History Graph

Search for Another Location

Airport:

Trip Planner

Search our weather history database for the weather conditions in past years. The results will help you decide how hot, cold, wet, or windy it might be!

Date:

Astronomy

May. 13, 2013 Rise Set
Actual Time 6:16 AM EDT 8:45 PM EDT
Civil Twilight 5:45 AM EDT 9:17 PM EDT
Nautical Twilight 5:05 AM EDT 9:56 PM EDT
Astronomical Twilight 4:21 AM EDT 10:41 PM EDT
Moon 9:01 AM EDT (5/13) 11:54 PM EDT (5/13)
Length of Visible Light 15h 32m
Length of Day
14h 29m
Waxing Crescent, 12% of the Moon is Illuminated
May 13
Waxing Crescent
May 18
First Quarter
May 25
Full
May 31
Last Quarter
Jun 8
New

Hourly Weather History & Observations

Time (EDT) Temp. Windchill Dew Point Humidity Pressure Visibility Wind Dir Wind Speed Gust Speed Precip Events Conditions
12:15 AM 33.8 °F - 26.6 °F 75% 30.11 in 10.0 mi Calm Calm - N/A   Clear
12:35 AM 32.0 °F - 26.6 °F 80% 30.11 in 10.0 mi Calm Calm - N/A   Clear
12:55 AM 33.8 °F - 26.6 °F 75% 30.10 in 10.0 mi Calm Calm - N/A   Clear
1:15 AM 32.0 °F - 26.6 °F 80% 30.11 in 10.0 mi Calm Calm - N/A   Clear
1:35 AM 32.0 °F - 26.6 °F 80% 30.10 in 10.0 mi Calm Calm - N/A   Clear
1:55 AM 32.0 °F - 26.6 °F 80% 30.10 in 10.0 mi Calm Calm - N/A   Clear
2:15 AM 32.0 °F - 26.6 °F 80% 30.10 in 10.0 mi Calm Calm - N/A   Clear
2:35 AM 32.0 °F - 26.6 °F 80% 30.10 in 10.0 mi Calm Calm - N/A   Clear
2:55 AM 33.8 °F 29.6 °F 26.6 °F 75% 30.10 in 10.0 mi West 4.6 mph - N/A   Clear
3:15 AM 33.8 °F - 26.6 °F 75% 30.10 in 10.0 mi Calm Calm - N/A   Scattered Clouds
3:35 AM 33.8 °F 30.8 °F 26.6 °F 75% 30.10 in 10.0 mi West 3.5 mph - N/A   Scattered Clouds
3:55 AM 33.8 °F - 26.6 °F 75% 30.11 in 10.0 mi Calm Calm - N/A   Clear
4:15 AM 32.0 °F - 26.6 °F 80% 30.11 in 10.0 mi Calm Calm - N/A   Clear
4:35 AM 32.0 °F - 26.6 °F 80% 30.11 in 10.0 mi Calm Calm - N/A   Clear
4:55 AM 32.0 °F - 26.6 °F 80% 30.11 in 10.0 mi Calm Calm - N/A   Clear
5:15 AM 30.2 °F - 26.6 °F 86% 30.11 in 10.0 mi Calm Calm - N/A   Clear
5:35 AM 30.2 °F - 26.6 °F 86% 30.12 in 10.0 mi Calm Calm - N/A   Clear
5:55 AM 30.2 °F - 26.6 °F 86% 30.11 in 10.0 mi Calm Calm - N/A   Clear
6:15 AM 28.4 °F - 26.6 °F 93% 30.12 in 10.0 mi Calm Calm - N/A   Clear
6:35 AM 30.2 °F - 26.6 °F 86% 30.12 in 10.0 mi Calm Calm - N/A   Clear
6:55 AM 30.2 °F - 26.6 °F 86% 30.13 in 10.0 mi Calm Calm - N/A   Clear
7:15 AM 32.0 °F - 28.4 °F 87% 30.13 in 10.0 mi Calm Calm - N/A   Clear
7:35 AM 33.8 °F - 28.4 °F 81% 30.14 in 10.0 mi Calm Calm - N/A   Clear
7:55 AM 35.6 °F - 28.4 °F 75% 30.15 in 10.0 mi Calm Calm - N/A   Clear
8:15 AM 37.4 °F 33.8 °F 28.4 °F 70% 30.15 in 10.0 mi NW 4.6 mph - N/A   Clear
8:35 AM 39.2 °F 35.9 °F 28.4 °F 65% 30.16 in 10.0 mi West 4.6 mph - N/A   Clear
8:55 AM 41.0 °F 37.1 °F 26.6 °F 57% 30.17 in 10.0 mi WNW 5.8 mph - N/A   Clear
9:15 AM 42.8 °F 38.0 °F 23.0 °F 46% 30.17 in 10.0 mi WNW 8.1 mph - N/A   Clear
9:35 AM 42.8 °F 38.6 °F 21.2 °F 42% 30.18 in 10.0 mi NNW 6.9 mph - N/A   Clear
9:55 AM 42.8 °F 37.0 °F 19.4 °F 39% 30.18 in 10.0 mi NNW 10.4 mph - N/A   Clear
10:15 AM 44.6 °F 40.2 °F 19.4 °F 37% 30.18 in 10.0 mi NW 8.1 mph - N/A   Clear
10:35 AM 44.6 °F 40.2 °F 19.4 °F 37% 30.18 in 10.0 mi NW 8.1 mph 16.1 mph N/A   Clear
10:55 AM 46.4 °F 41.5 °F 19.4 °F 34% 30.18 in 10.0 mi NW 10.4 mph 16.1 mph N/A   Clear
11:15 AM 46.4 °F 44.3 °F 19.4 °F 34% 30.18 in 10.0 mi West 4.6 mph - N/A   Clear
11:35 AM 48.2 °F - 19.4 °F 32% 30.18 in 10.0 mi NW 8.1 mph - N/A   Clear
11:55 AM 50.0 °F - 21.2 °F 32% 30.18 in 10.0 mi NW 5.8 mph - N/A   Clear
12:15 PM 50.0 °F - 19.4 °F 30% 30.18 in 10.0 mi NNW 9.2 mph 17.3 mph N/A   Clear
12:35 PM 50.0 °F - 17.6 °F 28% 30.18 in 10.0 mi WNW 4.6 mph - N/A   Clear
12:55 PM 50.0 °F - 17.6 °F 28% 30.18 in 10.0 mi West 11.5 mph - N/A   Clear
1:15 PM 51.8 °F - 17.6 °F 26% 30.18 in 10.0 mi NW 3.5 mph 17.3 mph N/A   Clear
1:35 PM 51.8 °F - 19.4 °F 28% 30.18 in 10.0 mi West 9.2 mph 29.9 mph N/A   Clear
1:55 PM 51.8 °F - 19.4 °F 28% 30.18 in 10.0 mi West 5.8 mph - N/A   Scattered Clouds
2:15 PM 51.8 °F - 19.4 °F 28% 30.17 in 10.0 mi WSW 4.6 mph - N/A   Scattered Clouds
2:35 PM 53.6 °F - 17.6 °F 24% 30.17 in 10.0 mi NNW 5.8 mph - N/A   Clear
2:55 PM 53.6 °F - 19.4 °F 26% 30.17 in 10.0 mi West 4.6 mph - N/A   Clear
3:15 PM 53.6 °F - 17.6 °F 24% 30.17 in 10.0 mi WSW 4.6 mph - N/A   Clear
3:35 PM 53.6 °F - 17.6 °F 24% 30.16 in 10.0 mi NNW 9.2 mph 19.6 mph N/A   Clear
4:35 PM 55.4 °F - 19.4 °F 25% 30.13 in 10.0 mi West 4.6 mph - N/A   Clear
4:55 PM 55.4 °F - 17.6 °F 23% 30.13 in 10.0 mi NNW 6.9 mph - N/A   Clear
5:15 PM 55.4 °F - 17.6 °F 23% 30.13 in 10.0 mi NW 6.9 mph - N/A   Clear
5:35 PM 55.4 °F - 19.4 °F 25% 30.12 in 10.0 mi NNW 9.2 mph - N/A   Clear
5:55 PM 55.4 °F - 19.4 °F 25% 30.12 in 10.0 mi NW 6.9 mph - N/A   Clear
6:15 PM 55.4 °F - 21.2 °F 26% 30.12 in 10.0 mi West 8.1 mph - N/A   Clear
6:35 PM 55.4 °F - 19.4 °F 25% 30.12 in 10.0 mi West 3.5 mph - N/A   Clear
6:55 PM 55.4 °F - 19.4 °F 25% 30.12 in 10.0 mi WNW 6.9 mph - N/A   Clear
7:35 PM 55.4 °F - 17.6 °F 23% 30.12 in 10.0 mi NW 5.8 mph - N/A   Clear
8:15 PM 53.6 °F - 19.4 °F 26% 30.12 in 10.0 mi Calm Calm - N/A   Clear
8:35 PM 51.8 °F - 26.6 °F 38% 30.13 in 10.0 mi Calm Calm - N/A   Clear
8:55 PM 46.4 °F - 28.4 °F 50% 30.13 in 10.0 mi Calm Calm - N/A   Clear
9:15 PM 44.6 °F - 28.4 °F 53% 30.13 in 10.0 mi Calm Calm - N/A   Clear
9:35 PM 44.6 °F - 30.2 °F 57% 30.13 in 10.0 mi Calm Calm - N/A   Clear
9:55 PM 42.8 °F - 28.4 °F 57% 30.13 in 10.0 mi Calm Calm - N/A   Clear
10:15 PM 42.8 °F - 28.4 °F 57% 30.13 in 10.0 mi Calm Calm - N/A   Clear
10:35 PM 41.0 °F - 32.0 °F 70% 30.13 in 10.0 mi Calm Calm - N/A   Clear
10:55 PM 41.0 °F 38.0 °F 32.0 °F 70% 30.13 in 10.0 mi SSE 4.6 mph - N/A   Clear
11:15 PM 44.6 °F 41.4 °F 30.2 °F 57% 30.13 in 10.0 mi SSE 5.8 mph - N/A   Clear
11:35 PM 44.6 °F 42.2 °F 28.4 °F 53% 30.12 in 10.0 mi SSE 4.6 mph - N/A   Clear
11:55 PM 44.6 °F 41.4 °F 28.4 °F 53% 30.12 in 10.0 mi SSE 5.8 mph - N/A   Clear